• In Russia
  • List of Countries
  • For 7 days
  • Water Temperature
  • Satellite Maps
  • Weather Map
  • Weather Widgets
  • user-avatar
    Login

    Hourly Weather Samarqand

    Today, 25 June, Monday

    Time Temperature Precipitation Wind Pressure Humidity
    00:00 +25°C° 0 mm 3 mps 696 mmHg 23%
    01:00 +24°C° 0 mm 3 mps 696 mmHg 25%
    02:00 +22°C° 0 mm 3 mps 696 mmHg 28%
    03:00 +22°C° 0 mm 3 mps 696 mmHg 30%
    04:00 +21°C° 0 mm 3 mps 696 mmHg 32%
    05:00 +24°C° 0 mm 3 mps 696 mmHg 31%
    06:00 +25°C° 0 mm 3 mps 696 mmHg 30%
    07:00 +27°C° 0 mm 4 mps 697 mmHg 29%
    08:00 +28°C° 0 mm 3 mps 697 mmHg 26%
    09:00 +29°C° 0 mm 3 mps 697 mmHg 24%
    10:00 +30°C° 0 mm 3 mps 697 mmHg 21%
    11:00 +31°C° 0 mm 3 mps 697 mmHg 20%
    12:00 +33°C° 0 mm 3 mps 697 mmHg 19%
    13:00 +33°C° 0 mm 3 mps 697 mmHg 18%
    14:00 +34°C° 0 mm 3 mps 697 mmHg 18%
    15:00 +34°C° 0 mm 3 mps 696 mmHg 18%
    16:00 +34°C° 0 mm 3 mps 696 mmHg 18%
    17:00 +31°C° 0 mm 3 mps 696 mmHg 20%
    18:00 +30°C° 0 mm 3 mps 696 mmHg 22%
    19:00 +29°C° 0 mm 3 mps 696 mmHg 25%
    20:00 +28°C° 0 mm 3 mps 696 mmHg 26%
    21:00 +27°C° 0 mm 3 mps 696 mmHg 27%
    22:00 +26°C° 0 mm 3 mps 696 mmHg 28%
    23:00 +25°C° 0 mm 3 mps 696 mmHg 29%

    Tomorrow, 26 June, Tuesday

    Time Temperature Precipitation Wind Pressure Humidity
    00:00 +25°C° 0 mm 3 mps 695 mmHg 31%
    01:00 +24°C° 0 mm 3 mps 695 mmHg 32%
    02:00 +22°C° 0 mm 3 mps 695 mmHg 34%
    03:00 +23°C° 0 mm 2 mps 695 mmHg 35%
    04:00 +23°C° 0 mm 2 mps 695 mmHg 36%
    05:00 +24°C° 0 mm 2 mps 695 mmHg 33%
    06:00 +26°C° 0 mm 3 mps 696 mmHg 31%
    07:00 +27°C° 0 mm 3 mps 696 mmHg 28%
    08:00 +29°C° 0 mm 3 mps 696 mmHg 25%
    09:00 +30°C° 0 mm 3 mps 697 mmHg 22%
    10:00 +32°C° 0 mm 4 mps 697 mmHg 19%
    11:00 +33°C° 0 mm 4 mps 697 mmHg 18%
    12:00 +34°C° 0 mm 4 mps 696 mmHg 17%
    13:00 +34°C° 0 mm 4 mps 696 mmHg 16%
    14:00 +34°C° 0 mm 4 mps 696 mmHg 16%
    15:00 +34°C° 0 mm 4 mps 696 mmHg 16%
    16:00 +34°C° 0 mm 5 mps 696 mmHg 16%
    17:00 +33°C° 0 mm 4 mps 695 mmHg 18%
    18:00 +30°C° 0 mm 4 mps 695 mmHg 20%
    19:00 +29°C° 0 mm 4 mps 695 mmHg 23%
    20:00 +28°C° 0 mm 3 mps 695 mmHg 25%
    21:00 +27°C° 0 mm 3 mps 695 mmHg 27%
    22:00 +26°C° 0 mm 3 mps 694 mmHg 29%
    23:00 +25°C° 0 mm 3 mps 694 mmHg 30%

    Day after tomorrow, 27 June, Wednesday

    Time Temperature Precipitation Wind Pressure Humidity
    00:00 +25°C° 0 mm 3 mps 694 mmHg 31%
    01:00 +24°C° 0 mm 3 mps 694 mmHg 33%
    02:00 +24°C° 0 mm 3 mps 694 mmHg 33%
    03:00 +22°C° 0 mm 3 mps 694 mmHg 34%
    04:00 +22°C° 0 mm 3 mps 693 mmHg 34%
    05:00 +24°C° 0 mm 3 mps 694 mmHg 31%
    06:00 +26°C° 0 mm 3 mps 694 mmHg 29%
    07:00 +28°C° 0 mm 3 mps 695 mmHg 26%
    08:00 +29°C° 0 mm 3 mps 695 mmHg 24%
    09:00 +32°C° 0 mm 4 mps 695 mmHg 22%
    10:00 +33°C° 0 mm 4 mps 695 mmHg 19%
    11:00 +34°C° 0 mm 3 mps 695 mmHg 18%
    12:00 +34°C° 0 mm 3 mps 695 mmHg 17%
    13:00 +35°C° 0 mm 3 mps 694 mmHg 16%
    14:00 +35°C° 0 mm 3 mps 694 mmHg 16%
    15:00 +35°C° 0 mm 3 mps 694 mmHg 16%
    16:00 +35°C° 0 mm 4 mps 694 mmHg 16%
    17:00 +34°C° 0 mm 4 mps 694 mmHg 18%
    18:00 +32°C° 0 mm 4 mps 694 mmHg 20%
    19:00 +30°C° 0 mm 4 mps 694 mmHg 22%
    20:00 +29°C° 0 mm 3 mps 694 mmHg 23%
    21:00 +28°C° 0 mm 3 mps 694 mmHg 24%
    22:00 +27°C° 0 mm 3 mps 694 mmHg 25%
    23:00 +26°C° 0 mm 2 mps 694 mmHg 27%

    28 June, Thursday

    Time Temperature Precipitation Wind Pressure Humidity
    00:00 +26°C° 0 mm 2 mps 693 mmHg 28%
    01:00 +25°C° 0 mm 2 mps 693 mmHg 30%
    02:00 +24°C° 0 mm 2 mps 693 mmHg 30%
    03:00 +24°C° 0 mm 2 mps 693 mmHg 31%
    04:00 +24°C° 0 mm 2 mps 693 mmHg 32%
    05:00 +25°C° 0 mm 2 mps 694 mmHg 29%
    06:00 +27°C° 0 mm 1 mps 694 mmHg 27%
    07:00 +29°C° 0 mm 1 mps 695 mmHg 25%
    08:00 +30°C° 0 mm 2 mps 695 mmHg 22%
    09:00 +31°C° 0 mm 2 mps 695 mmHg 20%
    10:00 +34°C° 0 mm 3 mps 695 mmHg 17%
    11:00 +35°C° 0 mm 3 mps 695 mmHg 16%
    12:00 +35°C° 0 mm 4 mps 695 mmHg 15%
    13:00 +36°C° 0 mm 4 mps 695 mmHg 14%
    14:00 +36°C° 0 mm 4 mps 694 mmHg 14%
    15:00 +36°C° 0 mm 4 mps 694 mmHg 14%
    16:00 +36°C° 0 mm 4 mps 694 mmHg 14%
    17:00 +34°C° 0 mm 3 mps 694 mmHg 17%
    18:00 +33°C° 0 mm 3 mps 694 mmHg 20%
    19:00 +30°C° 0 mm 2 mps 694 mmHg 23%
    20:00 +29°C° 0 mm 2 mps 694 mmHg 23%
    21:00 +28°C° 0 mm 1 mps 694 mmHg 23%
    22:00 +27°C° 0 mm 1 mps 694 mmHg 23%
    23:00 +27°C° 0 mm 1 mps 694 mmHg 23%

    29 June, Friday

    Time Temperature Precipitation Wind Pressure Humidity
    00:00 +26°C° 0 mm 1 mps 694 mmHg 24%
    01:00 +26°C° 0 mm 2 mps 694 mmHg 24%
    02:00 +26°C° 0 mm 2 mps 694 mmHg 25%
    03:00 +25°C° 0 mm 2 mps 694 mmHg 26%
    04:00 +25°C° 0 mm 2 mps 694 mmHg 27%
    05:00 +26°C° 0 mm 2 mps 694 mmHg 25%
    06:00 +28°C° 0 mm 2 mps 695 mmHg 24%
    07:00 +30°C° 0 mm 3 mps 695 mmHg 22%
    08:00 +31°C° 0 mm 2 mps 696 mmHg 21%
    09:00 +32°C° 0 mm 2 mps 696 mmHg 19%
    10:00 +34°C° 0 mm 2 mps 696 mmHg 17%
    11:00 +35°C° 0 mm 2 mps 696 mmHg 17%
    12:00 +36°C° 0 mm 2 mps 695 mmHg 16%
    13:00 +36°C° 0 mm 2 mps 695 mmHg 15%
    14:00 +36°C° 0 mm 2 mps 695 mmHg 15%
    15:00 +36°C° 0 mm 3 mps 695 mmHg 15%
    16:00 +36°C° 0 mm 3 mps 695 mmHg 15%
    17:00 +35°C° 0 mm 3 mps 695 mmHg 18%
    18:00 +34°C° 0 mm 3 mps 695 mmHg 20%
    19:00 +32°C° 0 mm 4 mps 694 mmHg 23%
    20:00 +30°C° 0 mm 4 mps 694 mmHg 24%
    21:00 +29°C° 0 mm 4 mps 695 mmHg 26%
    22:00 +28°C° 0 mm 4 mps 695 mmHg 27%
    23:00 +28°C° 0 mm 4 mps 694 mmHg 28%

    30 June, Saturday

    Time Temperature Precipitation Wind Pressure Humidity
    00:00 +27°C° 0 mm 3 mps 694 mmHg 29%
    01:00 +27°C° 0 mm 3 mps 694 mmHg 30%
    02:00 +26°C° 0 mm 3 mps 694 mmHg 31%
    03:00 +26°C° 0 mm 3 mps 694 mmHg 32%
    04:00 +25°C° 0 mm 3 mps 694 mmHg 32%
    05:00 +27°C° 0 mm 3 mps 695 mmHg 30%
    06:00 +29°C° 0 mm 4 mps 695 mmHg 28%
    07:00 +30°C° 0 mm 4 mps 696 mmHg 26%
    08:00 +33°C° 0 mm 4 mps 696 mmHg 24%
    09:00 +34°C° 0 mm 4 mps 696 mmHg 21%
    10:00 +35°C° 0 mm 4 mps 696 mmHg 19%
    11:00 +36°C° 0 mm 4 mps 696 mmHg 18%
    12:00 +37°C° 0 mm 4 mps 696 mmHg 17%
    13:00 +37°C° 0 mm 4 mps 695 mmHg 16%
    14:00 +37°C° 0 mm 4 mps 695 mmHg 16%
    15:00 +37°C° 0 mm 4 mps 695 mmHg 16%
    16:00 +37°C° 0 mm 5 mps 695 mmHg 16%
    17:00 +36°C° 0 mm 4 mps 695 mmHg 19%
    18:00 +34°C° 0 mm 4 mps 694 mmHg 21%
    19:00 +32°C° 0 mm 4 mps 694 mmHg 23%
    20:00 +31°C° 0 mm 3 mps 694 mmHg 25%
    21:00 +30°C° 0 mm 3 mps 694 mmHg 26%
    22:00 +29°C° 0 mm 3 mps 694 mmHg 27%
    23:00 +28°C° 0 mm 3 mps 694 mmHg 28%
    Show more